Time,TemperatureF,DewpointF,PressureIn,WindDirection,WindDirectionDegrees,WindSpeedMPH,WindSpeedGustMPH,Humidity,HourlyPrecipIn,Conditions,Clouds,dailyrainin,SoftwareType,DateUTC
2013-04-04 00:00:00,49.4,40.4,29.89,NE,36,4.0,6.0,71,0.00,,---,0.00,VWS V14.01,2013-04-04 07:00:00,
2013-04-04 00:05:00,49.6,40.2,29.89,NE,36,4.0,6.0,70,0.00,,---,0.00,VWS V14.01,2013-04-04 07:05:00,
2013-04-04 00:10:00,49.6,40.6,29.89,NE,34,5.0,6.0,71,0.00,,---,0.00,VWS V14.01,2013-04-04 07:10:00,
2013-04-04 00:15:00,49.4,40.8,29.89,NE,40,4.0,6.0,72,0.00,,---,0.00,VWS V14.01,2013-04-04 07:15:00,
2013-04-04 00:20:00,49.2,40.6,29.89,NE,48,5.0,6.0,72,0.00,,---,0.00,VWS V14.01,2013-04-04 07:20:00,
2013-04-04 00:25:00,49.5,40.9,29.89,NE,40,3.0,6.0,72,0.00,,---,0.00,VWS V14.01,2013-04-04 07:25:00,
2013-04-04 00:30:00,49.2,40.9,29.89,NE,38,4.0,6.0,73,0.00,,---,0.00,VWS V14.01,2013-04-04 07:30:00,
2013-04-04 00:35:00,49.2,40.9,29.89,NE,34,3.0,5.0,73,0.00,,---,0.00,VWS V14.01,2013-04-04 07:35:00,
2013-04-04 00:40:00,49.2,40.9,29.88,NE,34,0.0,5.0,73,0.00,,---,0.00,VWS V14.01,2013-04-04 07:40:00,
2013-04-04 00:45:00,49.4,40.8,29.88,North,360,0.0,5.0,72,0.00,,---,0.00,VWS V14.01,2013-04-04 07:45:00,
2013-04-04 00:50:00,49.2,40.9,29.88,North,360,0.0,0.0,73,0.00,,---,0.00,VWS V14.01,2013-04-04 07:50:00,
2013-04-04 00:55:00,48.6,41.0,29.88,WNW,287,3.0,4.0,75,0.00,,---,0.00,VWS V14.01,2013-04-04 07:55:00,
2013-04-04 01:00:00,48.1,40.6,29.87,WNW,287,0.0,0.0,75,0.00,,---,0.00,VWS V14.01,2013-04-04 08:00:00,
2013-04-04 01:05:00,47.9,40.4,29.88,WNW,287,0.0,0.0,75,0.00,,---,0.00,VWS V14.01,2013-04-04 08:05:00,
2013-04-04 01:10:00,48.0,40.8,29.88,WNW,284,0.0,0.0,76,0.00,,---,0.00,VWS V14.01,2013-04-04 08:10:00,
2013-04-04 01:15:00,48.1,40.6,29.87,WNW,283,0.0,0.0,75,0.00,,---,0.00,VWS V14.01,2013-04-04 08:15:00,
2013-04-04 01:20:00,48.2,40.7,29.85,NNW,341,12.0,12.0,75,0.00,,---,0.00,VWS V14.01,2013-04-04 08:20:00,
2013-04-04 01:25:00,48.5,40.6,29.85,NNW,348,9.0,15.0,74,0.00,,---,0.00,VWS V14.01,2013-04-04 08:25:00,
2013-04-04 01:30:00,50.3,41.3,29.85,East,101,6.0,8.0,71,0.00,,---,0.00,VWS V14.01,2013-04-04 08:30:00,
2013-04-04 01:35:00,50.9,39.2,29.83,North,9,13.0,13.0,64,0.00,,---,0.00,VWS V14.01,2013-04-04 08:35:00,
2013-04-04 01:40:00,52.3,40.1,29.84,ESE,108,4.0,15.0,63,0.00,,---,0.00,VWS V14.01,2013-04-04 08:40:00,
2013-04-04 01:45:00,51.4,39.7,29.83,SE,130,8.0,8.0,64,0.00,,---,0.00,VWS V14.01,2013-04-04 08:45:00,
2013-04-04 01:50:00,52.6,39.1,29.83,NE,34,2.0,13.0,60,0.00,,---,0.00,VWS V14.01,2013-04-04 08:50:00,
2013-04-04 01:55:00,52.4,40.2,29.83,ESE,109,2.0,13.0,63,0.00,,---,0.00,VWS V14.01,2013-04-04 08:55:00,
2013-04-04 02:00:00,51.5,39.3,29.83,ESE,106,2.0,2.0,63,0.00,,---,0.00,VWS V14.01,2013-04-04 09:00:00,
2013-04-04 02:05:00,51.6,39.4,29.83,ESE,122,4.0,5.0,63,0.00,,---,0.00,VWS V14.01,2013-04-04 09:05:00,
2013-04-04 02:10:00,51.1,39.4,29.85,SE,141,4.0,8.0,64,0.00,,---,0.00,VWS V14.01,2013-04-04 09:10:00,
2013-04-04 02:15:00,50.9,39.6,29.84,ESE,116,0.0,0.0,65,0.00,,---,0.00,VWS V14.01,2013-04-04 09:15:00,
2013-04-04 02:20:00,50.7,39.0,29.84,ESE,121,0.0,0.0,64,0.00,,---,0.00,VWS V14.01,2013-04-04 09:20:00,
2013-04-04 02:25:00,51.7,39.1,29.83,SE,125,0.0,0.0,62,0.00,,---,0.00,VWS V14.01,2013-04-04 09:25:00,
2013-04-04 02:30:00,51.9,38.9,29.84,SE,125,0.0,0.0,61,0.00,,---,0.00,VWS V14.01,2013-04-04 09:30:00,
2013-04-04 02:35:00,50.9,39.2,29.84,WNW,285,0.0,0.0,64,0.00,,---,0.00,VWS V14.01,2013-04-04 09:35:00,
2013-04-04 02:40:00,50.4,39.1,29.84,WNW,285,0.0,0.0,65,0.00,,---,0.00,VWS V14.01,2013-04-04 09:40:00,
2013-04-04 02:45:00,50.0,38.7,29.83,NW,311,0.0,0.0,65,0.00,,---,0.00,VWS V14.01,2013-04-04 09:45:00,
2013-04-04 02:50:00,50.1,38.8,29.83,NW,311,0.0,0.0,65,0.00,,---,0.00,VWS V14.01,2013-04-04 09:50:00,
2013-04-04 02:55:00,50.1,38.8,29.83,NW,312,0.0,0.0,65,0.00,,---,0.00,VWS V14.01,2013-04-04 09:55:00,
2013-04-04 03:00:00,49.4,38.9,29.83,NW,312,0.0,0.0,67,0.00,,---,0.00,VWS V14.01,2013-04-04 10:00:00,
2013-04-04 03:05:00,49.2,38.7,29.82,North,355,1.0,2.0,67,0.00,,---,0.00,VWS V14.01,2013-04-04 10:05:00,
2013-04-04 03:10:00,49.7,38.8,29.83,North,5,0.0,2.0,66,0.00,,---,0.00,VWS V14.01,2013-04-04 10:10:00,
2013-04-04 03:15:00,49.6,39.1,29.83,North,5,0.0,0.0,67,0.00,,---,0.00,VWS V14.01,2013-04-04 10:15:00,
2013-04-04 03:20:00,48.4,39.4,29.83,North,360,0.0,0.0,71,0.00,,---,0.00,VWS V14.01,2013-04-04 10:20:00,
2013-04-04 03:25:00,48.0,39.4,29.82,NNE,33,0.0,0.0,72,0.00,,---,0.00,VWS V14.01,2013-04-04 10:25:00,
2013-04-04 03:30:00,48.6,39.6,29.82,North,10,2.0,2.0,71,0.00,,---,0.00,VWS V14.01,2013-04-04 10:30:00,
2013-04-04 03:35:00,49.1,39.8,29.82,North,11,0.0,2.0,70,0.00,,---,0.00,VWS V14.01,2013-04-04 10:35:00,
2013-04-04 03:40:00,49.3,39.6,29.82,North,11,0.0,2.0,69,0.00,,---,0.00,VWS V14.01,2013-04-04 10:40:00,
2013-04-04 03:45:00,49.2,39.8,29.82,North,11,0.0,0.0,70,0.00,,---,0.00,VWS V14.01,2013-04-04 10:45:00,
2013-04-04 03:50:00,49.0,39.3,29.81,North,11,0.0,0.0,69,0.00,,---,0.00,VWS V14.01,2013-04-04 10:50:00,
2013-04-04 03:55:00,48.3,39.7,29.81,North,360,0.0,0.0,72,0.00,,---,0.00,VWS V14.01,2013-04-04 10:55:00,
2013-04-04 04:00:00,47.7,39.1,29.81,North,360,0.0,0.0,72,0.00,,---,0.00,VWS V14.01,2013-04-04 11:00:00,
2013-04-04 04:05:00,47.6,39.4,29.80,North,360,0.0,0.0,73,0.00,,---,0.00,VWS V14.01,2013-04-04 11:05:00,
2013-04-04 04:10:00,47.4,39.2,29.79,North,360,0.0,0.0,73,0.00,,---,0.00,VWS V14.01,2013-04-04 11:10:00,
2013-04-04 04:15:00,47.2,39.7,29.79,North,5,0.0,0.0,75,0.00,,---,0.00,VWS V14.01,2013-04-04 11:15:00,
2013-04-04 04:20:00,46.9,39.7,29.78,North,5,0.0,0.0,76,0.00,,---,0.00,VWS V14.01,2013-04-04 11:20:00,
2013-04-04 04:25:00,47.0,39.2,29.78,North,5,0.0,0.0,74,0.00,,---,0.00,VWS V14.01,2013-04-04 11:25:00,
2013-04-04 04:30:00,47.9,39.7,29.79,ESE,118,0.0,0.0,73,0.00,,---,0.00,VWS V14.01,2013-04-04 11:30:00,
2013-04-04 04:35:00,48.3,39.7,29.79,SE,130,0.0,0.0,72,0.00,,---,0.00,VWS V14.01,2013-04-04 11:35:00,
2013-04-04 04:40:00,48.1,39.9,29.78,SE,130,0.0,0.0,73,0.00,,---,0.00,VWS V14.01,2013-04-04 11:40:00,
2013-04-04 04:45:00,48.6,39.6,29.78,East,86,0.0,0.0,71,0.00,,---,0.00,VWS V14.01,2013-04-04 11:45:00,
2013-04-04 04:50:00,49.0,40.0,29.78,ENE,57,0.0,0.0,71,0.00,,---,0.00,VWS V14.01,2013-04-04 11:50:00,
2013-04-04 04:55:00,48.6,40.0,29.78,ENE,57,0.0,0.0,72,0.00,,---,0.00,VWS V14.01,2013-04-04 11:55:00,
2013-04-04 05:00:00,48.7,39.4,29.77,NE,44,0.0,0.0,70,0.00,,---,0.00,VWS V14.01,2013-04-04 12:00:00,
2013-04-04 05:05:00,48.5,39.9,29.77,NE,42,0.0,0.0,72,0.00,,---,0.00,VWS V14.01,2013-04-04 12:05:00,
2013-04-04 05:10:00,48.1,40.2,29.76,NNE,19,5.0,5.0,74,0.00,,---,0.00,VWS V14.01,2013-04-04 12:10:00,
2013-04-04 05:15:00,47.9,39.7,29.75,North,351,3.0,6.0,73,0.00,,---,0.00,VWS V14.01,2013-04-04 12:15:00,
2013-04-04 05:20:00,48.5,39.9,29.74,North,350,2.0,6.0,72,0.00,,---,0.00,VWS V14.01,2013-04-04 12:20:00,
2013-04-04 05:25:00,48.9,39.9,29.74,NNE,28,1.0,6.0,71,0.00,,---,0.00,VWS V14.01,2013-04-04 12:25:00,
2013-04-04 05:30:00,49.3,39.9,29.75,ENE,78,0.0,5.0,70,0.00,,---,0.00,VWS V14.01,2013-04-04 12:30:00,
2013-04-04 05:35:00,48.6,40.0,29.74,ENE,61,3.0,5.0,72,0.00,,---,0.00,VWS V14.01,2013-04-04 12:35:00,
2013-04-04 05:40:00,48.8,39.8,29.75,ENE,72,8.0,10.0,71,0.00,,---,0.00,VWS V14.01,2013-04-04 12:40:00,
2013-04-04 05:45:00,49.4,39.7,29.74,ENE,68,5.0,5.0,69,0.00,,---,0.00,VWS V14.01,2013-04-04 12:45:00,
2013-04-04 05:50:00,49.0,39.3,29.75,South,172,5.0,8.0,69,0.00,,---,0.00,VWS V14.01,2013-04-04 12:50:00,
2013-04-04 05:55:00,47.8,39.6,29.75,SSE,149,4.0,8.0,73,0.00,,---,0.00,VWS V14.01,2013-04-04 12:55:00,
2013-04-04 06:00:00,47.6,39.7,29.75,SSE,149,0.0,0.0,74,0.00,,---,0.00,VWS V14.01,2013-04-04 13:00:00,
2013-04-04 06:05:00,47.8,39.6,29.74,SSE,149,0.0,0.0,73,0.00,,---,0.00,VWS V14.01,2013-04-04 13:05:00,
2013-04-04 06:10:00,47.9,39.7,29.74,SSE,150,0.0,0.0,73,0.00,,---,0.00,VWS V14.01,2013-04-04 13:10:00,
2013-04-04 06:15:00,47.6,40.1,29.74,SSE,149,0.0,0.0,75,0.00,,---,0.00,VWS V14.01,2013-04-04 13:15:00,
2013-04-04 06:20:00,47.3,40.1,29.74,SSE,149,2.0,4.0,76,0.00,,---,0.00,VWS V14.01,2013-04-04 13:20:00,
2013-04-04 06:25:00,46.8,40.0,29.74,SSE,150,5.0,6.0,77,0.00,,---,0.00,VWS V14.01,2013-04-04 13:25:00,
2013-04-04 06:30:00,46.9,39.7,29.74,WNW,294,4.0,4.0,76,0.00,,---,0.00,VWS V14.01,2013-04-04 13:30:00,
2013-04-04 06:35:00,47.1,39.9,29.74,NW,310,2.0,5.0,76,0.00,,---,0.00,VWS V14.01,2013-04-04 13:35:00,
2013-04-04 06:40:00,47.1,39.9,29.74,NW,311,0.0,5.0,76,0.00,,---,0.00,VWS V14.01,2013-04-04 13:40:00,
2013-04-04 06:45:00,47.2,40.0,29.73,NW,323,4.0,4.0,76,0.00,,---,0.00,VWS V14.01,2013-04-04 13:45:00,
2013-04-04 06:50:00,47.2,40.4,29.73,WSW,238,4.0,5.0,77,0.00,,---,0.00,VWS V14.01,2013-04-04 13:50:00,
2013-04-04 06:55:00,47.3,39.8,29.73,WSW,250,1.0,5.0,75,0.00,,---,0.00,VWS V14.01,2013-04-04 13:55:00,
2013-04-04 07:00:00,47.7,39.8,29.74,WSW,250,0.0,0.0,74,0.00,,---,0.00,VWS V14.01,2013-04-04 14:00:00,
2013-04-04 07:05:00,47.8,40.3,29.74,WSW,246,0.0,0.0,75,0.00,,---,0.00,VWS V14.01,2013-04-04 14:05:00,
2013-04-04 07:10:00,47.9,40.0,29.73,WSW,245,0.0,0.0,74,0.00,,---,0.00,VWS V14.01,2013-04-04 14:10:00,
2013-04-04 07:15:00,48.5,39.5,29.73,NNE,29,3.0,3.0,71,0.00,,---,0.00,VWS V14.01,2013-04-04 14:15:00,
2013-04-04 07:20:00,49.6,40.2,29.73,North,355,0.0,5.0,70,0.00,,---,0.00,VWS V14.01,2013-04-04 14:20:00,
2013-04-04 07:25:00,50.1,38.0,29.72,North,360,0.0,5.0,63,0.00,,---,0.00,VWS V14.01,2013-04-04 14:25:00,
2013-04-04 07:30:00,51.0,39.7,29.71,North,360,0.0,0.0,65,0.00,,---,0.00,VWS V14.01,2013-04-04 14:30:00,
2013-04-04 07:35:00,51.0,40.1,29.72,North,360,0.0,0.0,66,0.00,,---,0.00,VWS V14.01,2013-04-04 14:35:00,
2013-04-04 07:40:00,51.0,39.7,29.72,East,80,0.0,0.0,65,0.00,,---,0.00,VWS V14.01,2013-04-04 14:40:00,
2013-04-04 07:45:00,50.7,40.9,29.72,SSE,163,0.0,1.0,69,0.00,,---,0.00,VWS V14.01,2013-04-04 14:45:00,
2013-04-04 07:50:00,49.8,40.4,29.73,SE,129,4.0,5.0,70,0.00,,---,0.00,VWS V14.01,2013-04-04 14:50:00,
2013-04-04 07:55:00,49.9,39.8,29.72,East,80,6.0,6.0,68,0.00,,---,0.00,VWS V14.01,2013-04-04 14:55:00,
2013-04-04 08:00:00,50.0,39.9,29.73,ENE,61,11.0,15.0,68,0.00,,---,0.00,VWS V14.01,2013-04-04 15:00:00,
2013-04-04 08:05:00,55.1,38.8,29.72,ESE,102,12.0,34.0,54,0.00,,---,0.00,VWS V14.01,2013-04-04 15:05:00,
2013-04-04 08:10:00,56.8,38.4,29.72,East,91,28.0,34.0,50,0.00,,---,0.00,VWS V14.01,2013-04-04 15:10:00,
2013-04-04 08:15:00,56.7,39.8,29.72,NE,47,8.0,8.0,53,0.00,,---,0.00,VWS V14.01,2013-04-04 15:15:00,
2013-04-04 08:20:00,54.8,39.4,29.72,East,80,15.0,15.0,56,0.00,,---,0.00,VWS V14.01,2013-04-04 15:20:00,
2013-04-04 08:25:00,56.1,37.2,29.72,East,94,18.0,20.0,49,0.00,,---,0.00,VWS V14.01,2013-04-04 15:25:00,
2013-04-04 08:30:00,56.7,38.3,29.72,ENE,70,17.0,17.0,50,0.00,,---,0.00,VWS V14.01,2013-04-04 15:30:00,
2013-04-04 08:35:00,56.3,38.4,29.71,ENE,63,8.0,17.0,51,0.00,,---,0.00,VWS V14.01,2013-04-04 15:35:00,
2013-04-04 08:40:00,56.6,37.2,29.71,ENE,70,8.0,17.0,48,0.00,,---,0.00,VWS V14.01,2013-04-04 15:40:00,
2013-04-04 08:45:00,56.8,38.4,29.71,East,100,14.0,15.0,50,0.00,,---,0.00,VWS V14.01,2013-04-04 15:45:00,
2013-04-04 08:50:00,56.8,37.9,29.71,ENE,76,5.0,15.0,49,0.00,,---,0.00,VWS V14.01,2013-04-04 15:50:00,
2013-04-04 08:55:00,56.7,37.8,29.71,East,85,13.0,17.0,49,0.00,,---,0.00,VWS V14.01,2013-04-04 15:55:00,
2013-04-04 09:00:00,57.0,37.0,29.70,East,84,14.0,21.0,47,0.00,,---,0.00,VWS V14.01,2013-04-04 16:00:00,
2013-04-04 09:05:00,57.2,37.2,29.70,ENE,71,12.0,21.0,47,0.00,,---,0.00,VWS V14.01,2013-04-04 16:05:00,
2013-04-04 09:10:00,57.2,37.2,29.70,East,83,15.0,21.0,47,0.00,,---,0.00,VWS V14.01,2013-04-04 16:10:00,
2013-04-04 09:15:00,57.0,38.0,29.70,East,83,14.0,14.0,49,0.00,,---,0.00,VWS V14.01,2013-04-04 16:15:00,
2013-04-04 09:20:00,57.3,37.3,29.70,East,80,8.0,15.0,47,0.00,,---,0.00,VWS V14.01,2013-04-04 16:20:00,
2013-04-04 09:25:00,57.4,37.9,29.70,East,83,10.0,15.0,48,0.00,,---,0.00,VWS V14.01,2013-04-04 16:25:00,
2013-04-04 09:30:00,57.4,38.4,29.70,East,82,7.0,8.0,49,0.00,,---,0.00,VWS V14.01,2013-04-04 16:30:00,
2013-04-04 09:35:00,57.5,38.5,29.70,East,87,7.0,13.0,49,0.00,,---,0.00,VWS V14.01,2013-04-04 16:35:00,
2013-04-04 09:40:00,57.7,38.2,29.69,East,86,8.0,13.0,48,0.00,,---,0.00,VWS V14.01,2013-04-04 16:40:00,
2013-04-04 09:45:00,57.9,38.9,29.69,East,92,5.0,5.0,49,0.00,,---,0.00,VWS V14.01,2013-04-04 16:45:00,
2013-04-04 09:50:00,58.1,37.5,29.70,ESE,102,8.0,15.0,46,0.00,,---,0.00,VWS V14.01,2013-04-04 16:50:00,
2013-04-04 09:55:00,58.6,36.8,29.70,ESE,110,13.0,19.0,44,0.00,,---,0.00,VWS V14.01,2013-04-04 16:55:00,
2013-04-04 10:00:00,58.3,38.2,29.70,SE,136,21.0,21.0,47,0.00,,---,0.00,VWS V14.01,2013-04-04 17:00:00,
2013-04-04 10:05:00,57.4,38.4,29.71,SE,126,17.0,33.0,49,0.00,,---,0.00,VWS V14.01,2013-04-04 17:05:00,
2013-04-04 10:10:00,56.6,38.7,29.71,ESE,117,28.0,33.0,51,0.00,,---,0.00,VWS V14.01,2013-04-04 17:10:00,
2013-04-04 10:15:00,55.9,39.5,29.71,East,101,26.0,26.0,54,0.00,,---,0.00,VWS V14.01,2013-04-04 17:15:00,
2013-04-04 10:20:00,55.2,40.2,29.72,East,96,13.0,35.0,57,0.00,,---,0.00,VWS V14.01,2013-04-04 17:20:00,
2013-04-04 10:25:00,54.7,40.2,29.71,ESE,110,15.0,35.0,58,0.00,,---,0.00,VWS V14.01,2013-04-04 17:25:00,
2013-04-04 10:30:00,55.0,40.5,29.72,ESE,110,15.0,15.0,58,0.00,,---,0.00,VWS V14.01,2013-04-04 17:30:00,
2013-04-04 10:35:00,55.7,39.8,29.72,ESE,103,18.0,31.0,55,0.00,,---,0.00,VWS V14.01,2013-04-04 17:35:00,
2013-04-04 10:40:00,55.4,40.9,29.72,East,101,16.0,31.0,58,0.00,,---,0.00,VWS V14.01,2013-04-04 17:40:00,
2013-04-04 10:45:00,54.9,41.7,29.73,ESE,104,11.0,11.0,61,0.00,,---,0.00,VWS V14.01,2013-04-04 17:45:00,
2013-04-04 10:50:00,53.7,41.8,29.73,East,96,15.0,19.0,64,0.00,,---,0.00,VWS V14.01,2013-04-04 17:50:00,
2013-04-04 10:55:00,53.1,42.1,29.72,East,96,15.0,21.0,66,0.00,,---,0.00,VWS V14.01,2013-04-04 17:55:00,
2013-04-04 11:00:00,52.9,42.6,29.72,East,80,11.0,15.0,68,0.00,,---,0.00,VWS V14.01,2013-04-04 18:00:00,
2013-04-04 11:05:00,52.9,42.6,29.72,East,84,14.0,19.0,68,0.00,,---,0.00,VWS V14.01,2013-04-04 18:05:00,
2013-04-04 11:10:00,52.8,42.9,29.72,ENE,78,17.0,23.0,69,0.00,,---,0.00,VWS V14.01,2013-04-04 18:10:00,
2013-04-04 11:15:00,52.8,43.3,29.72,ENE,76,12.0,12.0,70,0.00,,---,0.00,VWS V14.01,2013-04-04 18:15:00,
2013-04-04 11:20:00,52.6,43.8,29.71,ENE,75,8.0,17.0,72,0.00,,---,0.00,VWS V14.01,2013-04-04 18:20:00,
2013-04-04 11:25:00,52.4,44.0,29.71,ENE,78,10.0,17.0,73,0.00,,---,0.00,VWS V14.01,2013-04-04 18:25:00,
2013-04-04 11:30:00,52.8,44.4,29.71,East,80,10.0,13.0,73,0.00,,---,0.00,VWS V14.01,2013-04-04 18:30:00,
2013-04-04 11:35:00,53.3,44.9,29.71,ENE,67,8.0,19.0,73,0.00,,---,0.00,VWS V14.01,2013-04-04 18:35:00,
2013-04-04 11:40:00,53.5,44.0,29.70,ENE,76,8.0,19.0,70,0.00,,---,0.00,VWS V14.01,2013-04-04 18:40:00,
2013-04-04 11:45:00,53.8,45.0,29.70,NE,56,7.0,7.0,72,0.00,,---,0.00,VWS V14.01,2013-04-04 18:45:00,
2013-04-04 11:50:00,53.9,45.1,29.70,ENE,61,8.0,10.0,72,0.00,,---,0.00,VWS V14.01,2013-04-04 18:50:00,
2013-04-04 11:55:00,54.3,45.5,29.70,ENE,60,5.0,11.0,72,0.00,,---,0.00,VWS V14.01,2013-04-04 18:55:00,
2013-04-04 12:00:00,55.1,44.3,29.70,ESE,102,14.0,15.0,67,0.00,,---,0.00,VWS V14.01,2013-04-04 19:00:00,
2013-04-04 12:05:00,56.2,45.0,29.70,East,89,12.0,22.0,66,0.00,,---,0.00,VWS V14.01,2013-04-04 19:05:00,
2013-04-04 12:10:00,56.5,43.7,29.70,ESE,102,20.0,22.0,62,0.00,,---,0.00,VWS V14.01,2013-04-04 19:10:00,
2013-04-04 12:15:00,56.8,43.1,29.69,East,90,12.0,12.0,60,0.00,,---,0.00,VWS V14.01,2013-04-04 19:15:00,
2013-04-04 12:20:00,57.1,44.6,29.69,East,98,18.0,20.0,63,0.00,,---,0.00,VWS V14.01,2013-04-04 19:20:00,
2013-04-04 12:25:00,57.5,43.7,29.68,East,82,10.0,20.0,60,0.00,,---,0.00,VWS V14.01,2013-04-04 19:25:00,
2013-04-04 12:30:00,57.8,42.7,29.68,East,97,12.0,15.0,57,0.00,,---,0.00,VWS V14.01,2013-04-04 19:30:00,
2013-04-04 12:35:00,58.0,45.1,29.68,East,101,12.0,16.0,62,0.00,,---,0.00,VWS V14.01,2013-04-04 19:35:00,
2013-04-04 12:40:00,58.2,45.3,29.67,East,93,14.0,16.0,62,0.00,,---,0.00,VWS V14.01,2013-04-04 19:40:00,
2013-04-04 12:45:00,58.3,44.0,29.67,East,82,7.0,8.0,59,0.00,,---,0.00,VWS V14.01,2013-04-04 19:45:00,
2013-04-04 12:50:00,58.4,44.1,29.67,East,84,5.0,13.0,59,0.00,,---,0.00,VWS V14.01,2013-04-04 19:50:00,
2013-04-04 12:55:00,58.5,45.1,29.67,East,88,6.0,13.0,61,0.00,,---,0.00,VWS V14.01,2013-04-04 19:55:00,
2013-04-04 13:00:00,58.8,45.0,29.66,East,94,5.0,5.0,60,0.00,,---,0.00,VWS V14.01,2013-04-04 20:00:00,
2013-04-04 13:05:00,59.0,44.3,29.66,SE,141,1.0,5.0,58,0.00,,---,0.00,VWS V14.01,2013-04-04 20:05:00,
2013-04-04 13:10:00,59.4,43.2,29.66,SE,142,0.0,9.0,55,0.00,,---,0.00,VWS V14.01,2013-04-04 20:10:00,
2013-04-04 13:15:00,59.6,43.4,29.66,SE,144,5.0,7.0,55,0.00,,---,0.00,VWS V14.01,2013-04-04 20:15:00,
2013-04-04 13:20:00,59.4,44.2,29.67,SE,137,8.0,9.0,57,0.00,,---,0.00,VWS V14.01,2013-04-04 20:20:00,
2013-04-04 13:25:00,59.5,43.3,29.67,SE,138,14.0,19.0,55,0.00,,---,0.00,VWS V14.01,2013-04-04 20:25:00,
2013-04-04 13:30:00,59.9,43.7,29.67,SE,141,18.0,18.0,55,0.00,,---,0.00,VWS V14.01,2013-04-04 20:30:00,
2013-04-04 13:35:00,60.0,43.3,29.67,SE,136,15.0,22.0,54,0.00,,---,0.00,VWS V14.01,2013-04-04 20:35:00,
2013-04-04 13:40:00,60.1,42.4,29.67,SE,131,22.0,22.0,52,0.00,,---,0.00,VWS V14.01,2013-04-04 20:40:00,
2013-04-04 13:45:00,60.0,41.8,29.66,ESE,121,14.0,20.0,51,0.00,,---,0.00,VWS V14.01,2013-04-04 20:45:00,
2013-04-04 13:50:00,60.3,42.6,29.66,ESE,119,15.0,22.0,52,0.00,,---,0.00,VWS V14.01,2013-04-04 20:50:00,
2013-04-04 13:55:00,60.7,42.5,29.67,SE,134,13.0,22.0,51,0.00,,---,0.00,VWS V14.01,2013-04-04 20:55:00,
2013-04-04 14:00:00,60.3,43.1,29.66,SE,143,10.0,11.0,53,0.00,,---,0.00,VWS V14.01,2013-04-04 21:00:00,
2013-04-04 14:05:00,60.5,45.7,29.66,SSE,149,11.0,13.0,58,0.00,,---,0.00,VWS V14.01,2013-04-04 21:05:00,
2013-04-04 14:10:00,61.0,43.3,29.65,SE,126,13.0,23.0,52,0.00,,---,0.00,VWS V14.01,2013-04-04 21:10:00,
2013-04-04 14:15:00,61.3,42.0,29.65,SSE,152,12.0,20.0,49,0.00,,---,0.00,VWS V14.01,2013-04-04 21:15:00,
2013-04-04 14:20:00,62.5,41.5,29.65,South,180,9.0,20.0,46,0.00,,---,0.00,VWS V14.01,2013-04-04 21:20:00,
2013-04-04 14:25:00,62.9,40.7,29.64,ESE,123,12.0,24.0,44,0.00,,---,0.00,VWS V14.01,2013-04-04 21:25:00,
2013-04-04 14:30:00,63.1,40.3,29.63,SE,138,20.0,20.0,43,0.00,,---,0.00,VWS V14.01,2013-04-04 21:30:00,
2013-04-04 14:35:00,62.8,41.7,29.63,SE,145,14.0,24.0,46,0.00,,---,0.00,VWS V14.01,2013-04-04 21:35:00,
2013-04-04 14:40:00,62.9,41.3,29.63,SSE,148,8.0,24.0,45,0.00,,---,0.00,VWS V14.01,2013-04-04 21:40:00,
2013-04-04 14:45:00,63.3,41.0,29.62,SE,138,9.0,13.0,44,0.00,,---,0.00,VWS V14.01,2013-04-04 21:45:00,
2013-04-04 14:50:00,63.2,39.8,29.62,ESE,121,13.0,19.0,42,0.00,,---,0.00,VWS V14.01,2013-04-04 21:50:00,
2013-04-04 14:55:00,63.2,39.1,29.62,SE,127,15.0,19.0,41,0.00,,---,0.00,VWS V14.01,2013-04-04 21:55:00,
2013-04-04 15:00:00,63.4,40.5,29.62,SE,127,12.0,12.0,43,0.00,,---,0.00,VWS V14.01,2013-04-04 22:00:00,
2013-04-04 15:05:00,63.5,39.4,29.62,SE,137,27.0,32.0,41,0.00,,---,0.00,VWS V14.01,2013-04-04 22:05:00,
2013-04-04 15:10:00,63.4,38.7,29.63,SE,134,11.0,32.0,40,0.00,,---,0.00,VWS V14.01,2013-04-04 22:10:00,
2013-04-04 15:15:00,63.3,38.6,29.63,ESE,114,27.0,30.0,40,0.00,,---,0.00,VWS V14.01,2013-04-04 22:15:00,
2013-04-04 15:20:00,63.3,38.6,29.63,SE,140,19.0,30.0,40,0.00,,---,0.00,VWS V14.01,2013-04-04 22:20:00,
2013-04-04 15:25:00,63.3,39.8,29.63,South,170,13.0,30.0,42,0.00,,---,0.00,VWS V14.01,2013-04-04 22:25:00,
2013-04-04 15:30:00,62.9,39.5,29.63,SSE,167,29.0,31.0,42,0.00,,---,0.00,VWS V14.01,2013-04-04 22:30:00,
2013-04-04 15:35:00,62.4,41.9,29.64,SSE,161,14.0,31.0,47,0.00,,---,0.00,VWS V14.01,2013-04-04 22:35:00,
2013-04-04 15:40:00,61.7,41.8,29.65,SSW,192,11.0,31.0,48,0.00,,---,0.00,VWS V14.01,2013-04-04 22:40:00,
2013-04-04 15:45:00,61.2,41.9,29.66,South,175,21.0,21.0,49,0.00,,---,0.00,VWS V14.01,2013-04-04 22:45:00,
2013-04-04 15:50:00,60.6,40.8,29.66,SSE,159,31.0,38.0,48,0.00,,---,0.00,VWS V14.01,2013-04-04 22:50:00,
2013-04-04 15:55:00,59.9,41.2,29.67,South,173,25.0,38.0,50,0.00,,---,0.00,VWS V14.01,2013-04-04 22:55:00,
2013-04-04 16:00:00,59.1,43.0,29.69,South,176,8.0,15.0,55,0.00,,---,0.00,VWS V14.01,2013-04-04 23:00:00,
2013-04-04 16:05:00,56.4,42.7,29.69,SSW,203,7.0,21.0,60,0.00,,---,0.00,VWS V14.01,2013-04-04 23:05:00,
2013-04-04 16:10:00,54.9,42.1,29.70,SW,228,22.0,24.0,62,0.00,,---,0.00,VWS V14.01,2013-04-04 23:10:00,
2013-04-04 16:15:00,53.5,42.4,29.70,SW,221,26.0,26.0,66,0.00,,---,0.00,VWS V14.01,2013-04-04 23:15:00,
2013-04-04 16:20:00,52.4,42.9,29.71,SW,221,18.0,28.0,70,0.00,,---,0.00,VWS V14.01,2013-04-04 23:20:00,
2013-04-04 16:25:00,52.0,43.3,29.71,SW,221,10.0,28.0,72,0.00,,---,0.00,VWS V14.01,2013-04-04 23:25:00,
2013-04-04 16:30:00,52.3,44.6,29.71,SW,221,7.0,13.0,75,0.00,,---,0.00,VWS V14.01,2013-04-04 23:30:00,
2013-04-04 16:35:00,53.0,43.5,29.71,SW,221,19.0,20.0,70,0.00,,---,0.00,VWS V14.01,2013-04-04 23:35:00,
2013-04-04 16:40:00,53.2,43.3,29.71,SW,231,11.0,20.0,69,0.00,,---,0.00,VWS V14.01,2013-04-04 23:40:00,
2013-04-04 16:45:00,53.1,42.8,29.71,SW,236,12.0,15.0,68,0.00,,---,0.00,VWS V14.01,2013-04-04 23:45:00,
2013-04-04 16:50:00,52.8,42.9,29.70,WSW,242,8.0,15.0,69,0.00,,---,0.00,VWS V14.01,2013-04-04 23:50:00,
2013-04-04 16:55:00,53.0,43.1,29.71,SW,225,13.0,15.0,69,0.00,,---,0.00,VWS V14.01,2013-04-04 23:55:00,
2013-04-04 17:00:00,52.9,43.4,29.71,SW,229,8.0,9.0,70,0.00,,---,0.00,VWS V14.01,2013-04-05 00:00:00,
2013-04-04 17:05:00,53.2,43.3,29.71,SW,232,11.0,13.0,69,0.00,,---,0.00,VWS V14.01,2013-04-05 00:05:00,
2013-04-04 17:10:00,53.5,42.8,29.71,SW,234,7.0,16.0,67,0.00,,---,0.00,VWS V14.01,2013-04-05 00:10:00,
2013-04-04 17:15:00,54.0,42.9,29.71,SW,219,9.0,10.0,66,0.00,,---,0.00,VWS V14.01,2013-04-05 00:15:00,
2013-04-04 17:20:00,54.3,43.6,29.71,SW,230,8.0,11.0,67,0.00,,---,0.00,VWS V14.01,2013-04-05 00:20:00,
2013-04-04 17:25:00,54.4,42.5,29.71,SW,232,9.0,12.0,64,0.00,,---,0.00,VWS V14.01,2013-04-05 00:25:00,
2013-04-04 17:30:00,54.4,42.9,29.71,SW,222,12.0,12.0,65,0.00,,---,0.00,VWS V14.01,2013-04-05 00:30:00,
2013-04-04 17:35:00,54.3,42.0,29.71,SW,227,8.0,16.0,63,0.00,,---,0.00,VWS V14.01,2013-04-05 00:35:00,
2013-04-04 17:40:00,54.2,41.5,29.71,SW,221,9.0,16.0,62,0.00,,---,0.00,VWS V14.01,2013-04-05 00:40:00,
2013-04-04 17:45:00,54.3,41.6,29.71,SSW,212,6.0,9.0,62,0.00,,---,0.00,VWS V14.01,2013-04-05 00:45:00,
2013-04-04 17:50:00,54.4,41.7,29.71,SW,220,7.0,11.0,62,0.00,,---,0.00,VWS V14.01,2013-04-05 00:50:00,
2013-04-04 17:55:00,54.3,41.6,29.71,SW,225,8.0,13.0,62,0.00,,---,0.00,VWS V14.01,2013-04-05 00:55:00,
2013-04-04 18:00:00,54.2,41.5,29.71,SW,225,8.0,10.0,62,0.00,,---,0.00,VWS V14.01,2013-04-05 01:00:00,
2013-04-04 18:05:00,54.2,41.9,29.71,SW,222,4.0,10.0,63,0.00,,---,0.00,VWS V14.01,2013-04-05 01:05:00,
2013-04-04 18:10:00,54.0,42.5,29.71,SW,223,6.0,10.0,65,0.00,,---,0.00,VWS V14.01,2013-04-05 01:10:00,
2013-04-04 18:15:00,53.7,42.6,29.71,SW,219,3.0,3.0,66,0.00,,---,0.00,VWS V14.01,2013-04-05 01:15:00,
2013-04-04 18:20:00,53.5,42.4,29.71,SW,227,6.0,9.0,66,0.00,,---,0.00,VWS V14.01,2013-04-05 01:20:00,
2013-04-04 18:25:00,53.3,41.8,29.72,SW,229,9.0,9.0,65,0.00,,---,0.00,VWS V14.01,2013-04-05 01:25:00,
2013-04-04 18:30:00,53.3,41.8,29.71,SW,236,4.0,6.0,65,0.00,,---,0.00,VWS V14.01,2013-04-05 01:30:00,
2013-04-04 18:35:00,53.3,42.2,29.72,SW,236,6.0,9.0,66,0.00,,---,0.00,VWS V14.01,2013-04-05 01:35:00,
2013-04-04 18:40:00,53.3,41.8,29.72,SW,226,5.0,9.0,65,0.00,,---,0.00,VWS V14.01,2013-04-05 01:40:00,
2013-04-04 18:45:00,53.1,42.1,29.72,SW,226,5.0,5.0,66,0.00,,---,0.00,VWS V14.01,2013-04-05 01:45:00,
2013-04-04 18:50:00,52.9,42.3,29.72,SW,217,4.0,8.0,67,0.00,,---,0.00,VWS V14.01,2013-04-05 01:50:00,
2013-04-04 18:55:00,52.7,42.8,29.73,SSW,211,5.0,8.0,69,0.00,,---,0.00,VWS V14.01,2013-04-05 01:55:00,
2013-04-04 19:00:00,52.6,42.3,29.72,SW,232,6.0,6.0,68,0.00,,---,0.00,VWS V14.01,2013-04-05 02:00:00,
2013-04-04 19:05:00,52.3,42.1,29.73,WSW,252,19.0,22.0,68,0.00,,---,0.00,VWS V14.01,2013-04-05 02:05:00,
2013-04-04 19:10:00,50.7,41.7,29.73,SW,232,24.0,25.0,71,0.00,,---,0.00,VWS V14.01,2013-04-05 02:10:00,
2013-04-04 19:15:00,49.7,41.8,29.74,SW,223,14.0,17.0,74,0.00,,---,0.00,VWS V14.01,2013-04-05 02:15:00,
2013-04-04 19:20:00,48.6,41.7,29.74,SW,225,11.0,17.0,77,0.00,,---,0.00,VWS V14.01,2013-04-05 02:20:00,
2013-04-04 19:25:00,47.9,42.0,29.74,SW,218,6.0,17.0,80,0.00,,---,0.00,VWS V14.01,2013-04-05 02:25:00,
2013-04-04 19:30:00,47.4,41.9,29.74,SW,225,4.0,4.0,81,0.00,,---,0.00,VWS V14.01,2013-04-05 02:30:00,
2013-04-04 19:35:00,47.1,41.9,29.73,WSW,240,0.0,4.0,82,0.00,,---,0.00,VWS V14.01,2013-04-05 02:35:00,
2013-04-04 19:40:00,46.8,41.9,29.74,WSW,240,0.0,4.0,83,0.00,,---,0.00,VWS V14.01,2013-04-05 02:40:00,
2013-04-04 19:45:00,46.7,41.8,29.74,SW,233,0.0,0.0,83,0.00,,---,0.00,VWS V14.01,2013-04-05 02:45:00,
2013-04-04 19:50:00,46.6,42.0,29.74,SW,227,3.0,4.0,84,0.00,,---,0.00,VWS V14.01,2013-04-05 02:50:00,
2013-04-04 19:55:00,46.4,41.8,29.75,SW,228,0.0,4.0,84,0.00,,---,0.00,VWS V14.01,2013-04-05 02:55:00,
2013-04-04 20:00:00,46.2,41.6,29.75,SW,228,0.0,0.0,84,0.00,,---,0.00,VWS V14.01,2013-04-05 03:00:00,
2013-04-04 20:05:00,46.0,41.8,29.75,SW,228,0.0,0.0,85,0.00,,---,0.00,VWS V14.01,2013-04-05 03:05:00,
2013-04-04 20:10:00,45.9,41.7,29.75,WSW,238,0.0,0.0,85,0.00,,---,0.00,VWS V14.01,2013-04-05 03:10:00,
2013-04-04 20:15:00,45.8,41.2,29.75,WNW,303,0.0,0.0,84,0.00,,---,0.00,VWS V14.01,2013-04-05 03:15:00,
2013-04-04 20:20:00,45.2,41.0,29.75,WNW,303,0.0,0.0,85,0.00,,---,0.00,VWS V14.01,2013-04-05 03:20:00,
2013-04-04 20:25:00,45.0,41.4,29.76,North,360,1.0,1.0,87,0.00,,---,0.00,VWS V14.01,2013-04-05 03:25:00,
2013-04-04 20:30:00,45.2,41.6,29.76,North,5,1.0,2.0,87,0.00,,---,0.00,VWS V14.01,2013-04-05 03:30:00,
2013-04-04 20:35:00,45.8,42.2,29.76,North,5,4.0,4.0,87,0.00,,---,0.00,VWS V14.01,2013-04-05 03:35:00,
2013-04-04 20:40:00,45.5,41.6,29.76,NE,50,5.0,5.0,86,0.00,,---,0.00,VWS V14.01,2013-04-05 03:40:00,
2013-04-04 20:45:00,45.1,41.5,29.76,NE,53,4.0,4.0,87,0.00,,---,0.00,VWS V14.01,2013-04-05 03:45:00,
2013-04-04 20:50:00,45.2,41.6,29.76,NE,53,1.0,5.0,87,0.00,,---,0.00,VWS V14.01,2013-04-05 03:50:00,
2013-04-04 20:55:00,45.0,41.4,29.76,NE,53,0.0,5.0,87,0.00,,---,0.00,VWS V14.01,2013-04-05 03:55:00,
2013-04-04 21:00:00,45.2,41.6,29.76,NE,37,3.0,5.0,87,0.00,,---,0.00,VWS V14.01,2013-04-05 04:00:00,
2013-04-04 21:05:00,45.2,41.6,29.76,NE,38,5.0,5.0,87,0.00,,---,0.00,VWS V14.01,2013-04-05 04:05:00,
2013-04-04 21:10:00,45.0,41.4,29.77,NE,40,5.0,6.0,87,0.00,,---,0.00,VWS V14.01,2013-04-05 04:10:00,
2013-04-04 21:15:00,44.9,41.3,29.77,ENE,63,2.0,3.0,87,0.00,,---,0.00,VWS V14.01,2013-04-05 04:15:00,
2013-04-04 21:20:00,45.1,41.2,29.77,NNE,28,4.0,5.0,86,0.00,,---,0.00,VWS V14.01,2013-04-05 04:20:00,
2013-04-04 21:25:00,45.4,41.2,29.77,NNE,28,0.0,5.0,85,0.00,,---,0.00,VWS V14.01,2013-04-05 04:25:00,
2013-04-04 21:30:00,45.1,40.9,29.78,NNE,28,0.0,0.0,85,0.00,,---,0.00,VWS V14.01,2013-04-05 04:30:00,
2013-04-04 21:35:00,44.4,40.2,29.79,NNE,28,0.0,0.0,85,0.00,,---,0.00,VWS V14.01,2013-04-05 04:35:00,
2013-04-04 21:40:00,44.0,40.4,29.79,NNE,28,0.0,0.0,87,0.00,,---,0.00,VWS V14.01,2013-04-05 04:40:00,
2013-04-04 21:45:00,44.4,41.1,29.79,NNE,30,3.0,4.0,88,0.00,,---,0.00,VWS V14.01,2013-04-05 04:45:00,
2013-04-04 21:50:00,44.8,41.5,29.79,NNE,30,3.0,4.0,88,0.00,,---,0.00,VWS V14.01,2013-04-05 04:50:00,
2013-04-04 21:55:00,44.7,41.1,29.79,NNE,30,0.0,4.0,87,0.00,,---,0.00,VWS V14.01,2013-04-05 04:55:00,
2013-04-04 22:00:00,44.6,41.3,29.79,NNE,20,0.0,0.0,88,0.00,,---,0.00,VWS V14.01,2013-04-05 05:00:00,
2013-04-04 22:05:00,44.4,41.1,29.79,WNW,296,6.0,6.0,88,0.00,,---,0.00,VWS V14.01,2013-04-05 05:05:00,
2013-04-04 22:10:00,44.5,41.2,29.79,NW,314,7.0,8.0,88,0.00,,---,0.00,VWS V14.01,2013-04-05 05:10:00,
2013-04-04 22:15:00,45.1,41.5,29.79,NNE,17,5.0,5.0,87,0.00,,---,0.00,VWS V14.01,2013-04-05 05:15:00,
2013-04-04 22:20:00,46.0,41.4,29.79,NNE,21,0.0,5.0,84,0.00,,---,0.00,VWS V14.01,2013-04-05 05:20:00,
2013-04-04 22:25:00,46.4,41.2,29.79,NE,44,4.0,5.0,82,0.00,,---,0.00,VWS V14.01,2013-04-05 05:25:00,
2013-04-04 22:30:00,46.5,41.0,29.79,East,84,0.0,0.0,81,0.00,,---,0.00,VWS V14.01,2013-04-05 05:30:00,
2013-04-04 22:35:00,47.1,40.6,29.79,SE,130,12.0,14.0,78,0.00,,---,0.00,VWS V14.01,2013-04-05 05:35:00,
2013-04-04 22:40:00,48.1,40.6,29.79,SE,140,12.0,14.0,75,0.00,,---,0.00,VWS V14.01,2013-04-05 05:40:00,
2013-04-04 22:45:00,48.6,40.0,29.80,SSE,148,4.0,5.0,72,0.00,,---,0.00,VWS V14.01,2013-04-05 05:45:00,
2013-04-04 22:50:00,47.5,40.3,29.81,WNW,299,6.0,7.0,76,0.00,,---,0.00,VWS V14.01,2013-04-05 05:50:00,
2013-04-04 22:55:00,46.5,40.3,29.81,WNW,295,0.0,7.0,79,0.00,,---,0.00,VWS V14.01,2013-04-05 05:55:00,
2013-04-04 23:00:00,46.4,40.6,29.82,SSE,148,7.0,7.0,80,0.00,,---,0.00,VWS V14.01,2013-04-05 06:00:00,
2013-04-04 23:05:00,46.3,40.5,29.82,SW,214,17.0,31.0,80,0.00,,---,0.00,VWS V14.01,2013-04-05 06:05:00,
2013-04-04 23:10:00,45.5,40.3,29.82,SW,226,12.0,31.0,82,0.00,,---,0.00,VWS V14.01,2013-04-05 06:10:00,
2013-04-04 23:15:00,44.8,40.0,29.82,SW,226,4.0,6.0,83,0.00,,---,0.00,VWS V14.01,2013-04-05 06:15:00,
2013-04-04 23:20:00,44.5,40.0,29.81,West,270,2.0,6.0,84,0.00,,---,0.00,VWS V14.01,2013-04-05 06:20:00,
2013-04-04 23:25:00,44.2,39.7,29.80,NW,322,0.0,6.0,84,0.00,,---,0.00,VWS V14.01,2013-04-05 06:25:00,
2013-04-04 23:30:00,44.1,39.9,29.81,NW,322,0.0,0.0,85,0.00,,---,0.00,VWS V14.01,2013-04-05 06:30:00,
2013-04-04 23:35:00,44.1,39.9,29.81,NW,322,0.0,0.0,85,0.00,,---,0.00,VWS V14.01,2013-04-05 06:35:00,
2013-04-04 23:40:00,44.0,39.8,29.82,NNE,25,0.0,0.0,85,0.00,,---,0.00,VWS V14.01,2013-04-05 06:40:00,
2013-04-04 23:45:00,43.7,40.1,29.81,ENE,69,0.0,0.0,87,0.00,,---,0.00,VWS V14.01,2013-04-05 06:45:00,
2013-04-04 23:50:00,43.7,39.8,29.81,ENE,69,0.0,0.0,86,0.00,,---,0.00,VWS V14.01,2013-04-05 06:50:00,
2013-04-04 23:55:00,43.7,39.8,29.82,ENE,69,0.0,0.0,86,0.00,,---,0.00,VWS V14.01,2013-04-05 06:55:00,